GW2134 Weather Reports


time (UTC)temp
C
wind
direction
speed
KPH
gust
KPH
rain 1hr
cm
rain 24hr
cm
rain mn
cm
humidity
%
barometer
mb
20260903171608 25 39 3.2 11.3 0.00 1.02 0.00 56 1023.2
20260903164614 26 267 1.6 6.4 0.00 1.02 0.00 52 1023.2
20260903163059 27 13 1.6 6.4 0.00 1.02 0.00 49 1023.1
20260903161603 28 9 1.6 4.8 0.00 1.02 0.00 47 1022.9
20260903160127 29 15 3.2 6.4 0.00 1.02 0.00 42 1022.9
20260903154606 30 355 1.6 6.4 0.00 1.02 0.00 38 1023.2
20260903153054 30 9 1.6 6.4 0.00 1.02 0.00 37 1023.3
20260903151602 30 343 3.2 9.7 0.00 1.02 0.00 41 1023.3
20260903150111 30 0 0.0 12.9 0.00 1.02 0.00 40 1023.3
20260903144606 30 338 1.6 8.0 0.00 1.02 0.00 40 1023.4
20260903143111 30 340 1.6 8.0 0.00 1.02 0.00 39 1023.2
20260903141613 30 19 3.2 16.1 0.00 1.02 0.00 38 1023.3
20260903140109 31 346 1.6 8.0 0.00 1.02 0.00 35 1023.4
20260903134558 31 315 1.6 12.9 0.00 1.02 0.00 39 1023.1
20260903133053 31 341 8.0 19.3 0.00 1.02 0.00 42 1023.3
20260903131603 31 0 4.8 14.5 0.00 1.02 0.00 42 1023.4
20260903130057 30 46 3.2 8.0 0.00 1.02 0.00 42 1023.5
20260903124555 30 110 3.2 12.9 0.00 1.02 0.00 44 1023.7
20260903123052 30 0 3.2 11.3 0.00 1.02 0.00 45 1023.6
20260903121558 29 0 3.2 14.5 0.00 1.02 0.00 48 1023.7
20260903120104 29 185 4.8 9.7 0.00 1.02 0.00 48 1023.8
20260903114606 29 150 3.2 11.3 0.00 1.02 0.00 47 1023.6
20260903113101 30 209 6.4 12.9 0.00 1.02 0.00 48 1023.7
20260903111554 29 103 0.0 9.7 0.00 1.02 0.00 49 1023.9
20260903104607 28 74 3.2 16.1 0.00 1.02 0.00 52 1024.2
20260903103104 28 114 4.8 14.5 0.00 1.02 0.00 53 1024.4
20260903101610 28 85 6.4 14.5 0.00 1.02 0.00 54 1024.6
20260903100103 28 191 3.2 11.3 0.00 1.02 0.00 55 1024.8
20260903094554 27 180 3.2 9.7 0.00 1.02 0.00 56 1024.8
20260903093112 27 148 1.6 11.3 0.00 1.02 0.00 57 1024.8
20260903091601 27 128 3.2 11.3 0.00 1.02 0.00 58 1024.9
20260903090105 26 117 1.6 8.0 0.00 1.02 0.00 58 1024.8
20260903084611 26 0 1.6 6.4 0.00 1.02 0.00 60 1024.8
20260903083059 26 136 1.6 8.0 0.00 1.02 0.00 61 1024.7
20260903081559 26 115 0.0 4.8 0.00 1.02 0.00 62 1024.6
20260903080055 25 124 1.6 6.4 0.00 1.02 0.00 64 1024.5
20260903074552 24 94 0.0 1.6 0.00 1.02 0.00 65 1024.4
20260903073100 23 0 0.0 3.2 0.00 1.02 0.00 71 1024.3
20260903071602 23 0 0.0 3.2 0.00 1.02 0.00 72 1024.3
20260903070100 22 0 0.0 3.2 0.00 1.02 0.00 75 1024.2
20260903064600 21 0 0.0 3.2 0.00 1.02 0.00 78 1024.2
20260903063126 21 0 0.0 0.0 0.00 1.02 0.00 79 1024.2
20260903061559 20 0 0.0 1.6 0.00 1.02 0.00 79 1024.1
20260903060115 20 0 0.0 0.0 0.00 1.02 0.00 80 1024.0
20260903054554 20 0 0.0 4.8 0.00 1.02 0.00 79 1023.9
20260903053053 20 338 3.2 6.4 0.00 1.02 0.00 77 1023.8
20260903051552 20 355 0.0 6.4 0.00 1.02 0.00 76 1023.8
20260903050128 19 327 3.2 9.7 0.00 1.02 0.00 78 1023.5
20260903044555 19 9 4.8 9.7 0.00 1.02 0.00 79 1023.3
20260903043054 19 329 1.6 9.7 0.00 1.02 0.00 79 1023.2
20260903041554 19 355 3.2 6.4 0.00 1.02 0.00 79 1023.1
20260903040105 18 21 0.0 4.8 0.00 1.02 0.00 79 1023.1
20260903034557 18 331 1.6 4.8 0.00 1.02 0.00 79 1023.2
20260903033101 18 0 0.0 4.8 0.00 1.02 0.00 79 1023.2
20260903031602 19 42 3.2 8.0 0.00 1.02 0.00 79 1023.3
20260903030105 18 304 3.2 6.4 0.00 1.02 0.00 80 1023.4
20260903024608 18 331 1.6 6.4 0.00 1.02 0.00 80 1023.4
20260903023102 19 0 0.0 1.6 0.00 1.02 0.00 79 1023.5
20260903021602 18 0 0.0 3.2 0.00 1.02 0.00 79 1023.6
20260903014558 19 0 0.0 4.8 0.00 1.02 0.00 80 1023.5
20260903013054 19 290 3.2 6.4 0.00 1.02 0.00 79 1023.6
20260903011604 19 343 1.6 6.4 0.00 1.02 0.00 78 1023.5
20260903010100 19 0 0.0 1.6 0.00 1.02 0.00 78 1023.4
20260903004600 19 0 0.0 3.2 0.00 1.02 0.00 79 1023.5
20260903003055 19 328 0.0 6.4 0.00 1.02 0.00 80 1023.4
20260903001601 19 5 3.2 8.0 0.00 1.02 0.00 80 1023.3
20260903000107 19 298 0.0 6.4 0.00 1.02 0.00 79 1023.4
20260902234559 19 0 0.0 1.6 0.00 1.02 0.00 79 1023.4
20260902233059 19 0 1.6 8.0 0.00 1.02 0.00 80 1023.5
20260902231604 19 336 3.2 6.4 0.00 1.02 0.00 81 1023.5
20260902224602 19 0 0.0 6.4 0.00 1.02 0.00 82 1023.5
20260902223107 19 0 3.2 8.0 0.00 1.02 0.00 83 1023.4
20260902221600 19 0 0.0 3.2 0.00 1.02 0.00 84 1023.3
20260902214602 19 5 0.0 6.4 0.00 1.02 1.02 83 1023.2
20260902213059 19 56 3.2 8.0 0.00 1.02 1.02 83 1023.2
20260902211556 19 342 3.2 8.0 0.00 1.02 1.02 82 1023.3
20260902204601 19 340 4.8 9.7 0.00 1.02 1.02 82 1022.9
20260902203057 19 342 3.2 9.7 0.00 1.02 1.02 83 1022.9
20260902201600 19 28 6.4 12.9 0.00 1.02 1.02 84 1022.9
20260902194559 19 344 6.4 12.9 0.00 1.02 1.02 85 1022.8
20260902193101 19 338 6.4 12.9 0.00 1.02 1.02 86 1022.8
20260902191559 18 323 4.8 8.0 0.00 1.02 1.02 88 1022.7
20260902190056 18 323 3.2 8.0 0.00 0.99 0.99 88 1022.6
20260902184559 18 347 0.0 8.0 0.00 0.99 0.99 89 1022.5
20260902183059 18 343 4.8 9.7 0.20 0.99 0.99 88 1022.6
20260902181602 19 355 1.6 8.0 0.99 0.99 0.99 88 1022.4
20260902180142 19 360 3.2 6.4 0.99 0.99 0.99 87 1022.3
20260902174600 19 331 4.8 14.5 0.99 0.99 0.99 83 1022.6
20260902173054 21 355 16.1 29.0 0.74 0.74 0.74 76 1023.1